Вернуться в каталог

STARLINK-2502

АктивенСвязьVLEO
NORAD 48327·PAYLOAD·🇺🇸 United States

Запущен Apr 29, 2021 с Cape Canaveral Space Force Station

Loading…

Ближайшие Пролёты (ближайшие 24 часа)

TLE

СвежийSource: CelesTrak SupGP

Эпоха: Sep 14, 2026, 20:58 UTC

1 48327C 21036BD  26257.87409722 -.00000518  00000+0 -16673-4 0  2576
2 48327  53.1577 300.6839 0001370  85.3165 141.8181 15.31700454    17

Отслеживайте STARLINK-2502 в реальном времени с AllMySat

Download on the App Store